Overview Statistics Trail Chart Weather Telemetry Raw packets
 

This is the latest recevied weather packets stored in our database for station/object N4BBA. If no packets are shown the sender has not sent any weather packets the latest 10 day(s).

<< 39 40 41 42 43 44 45 >>
Time Temp. Humidity Pressure Rain* Wind** Luminosity Snow
1777419541 18.33° C 74% 1015.9 hPa 0 mm - 14 W/m² -
1777419239 18.89° C 73% 1015.9 hPa 0 mm - 15 W/m² -
1777418936 18.89° C 72% 1015.9 hPa 0 mm - 17 W/m² -
1777418631 19.44° C 71% 1016.1 hPa 0 mm - 20 W/m² -
1777418328 20° C 69% 1016.4 hPa 0 mm - 21 W/m² -
1777418024 20.56° C 68% 1016.5 hPa 0 mm - 26 W/m² -
1777417720 21.11° C 66% 1016.3 hPa 0 mm - 40 W/m² -
1777417415 21.67° C 64% 1016.4 hPa 0 mm - 46 W/m² -
1777417112 21.67° C 64% 1016.3 hPa 0 mm - 76 W/m² -
1777416807 22.22° C 63% 1016.4 hPa 0 mm - 92 W/m² -
1777416503 22.22° C 64% 1016.6 hPa 0 mm - 106 W/m² -
1777416200 21.67° C 63% 1016.6 hPa 0 mm - 127 W/m² -
1777415899 21.67° C 63% 1016.7 hPa 0 mm - 135 W/m² -
1777415595 22.22° C 62% 1016.4 hPa 0 mm - 130 W/m² -
1777415291 22.22° C 61% 1016.5 hPa 0 mm - 111 W/m² -
1777414986 22.78° C 61% 1016.6 hPa 0 mm - 178 W/m² -
1777414686 22.22° C 61% 1016.6 hPa 0 mm - 198 W/m² -
1777414381 22.78° C 61% 1016.6 hPa 0 mm - 226 W/m² -
1777414081 22.22° C 61% 1016.6 hPa 0 mm - 274 W/m² -
1777413776 22.22° C 63% 1016.6 hPa 0 mm - 279 W/m² -
1777413472 21.67° C 62% 1016.2 hPa 0 mm - 221 W/m² -
1777413168 22.22° C 62% 1016.4 hPa 0 mm - 171 W/m² -
1777412863 21.67° C 62% 1016.4 hPa 0 mm - 206 W/m² -
1777412563 22.22° C 59% 1016.4 hPa 0 mm - 221 W/m² -
1777412261 22.78° C 59% 1016.3 hPa 0 mm - 272 W/m² -

* Rain latest hour (hover to see other rain measurements)
** Current wind speed in m/s (hover to see current wind gust speed)